Regional Weather Roundup
Issued by NWS

Home | Current Version | Previous Version | Graphics & Text | Print | Product List | Glossary On
Versions: 1 2 3 4 5 6 7 8 9 10 11 12 13 14 15 16 17 18 19 20 21 22 23 24 25 26 27
000
ASUS45 KSLC 201710
RWRUT

UTAH REGIONAL WEATHER ROUNDUP
NATIONAL WEATHER SERVICE SALT LAKE CITY UT
1000 AM MST MON FEB 20 2017

UTZ001>011-023>025-201800-

NORTHERN UTAH

CITY           SKY/WX    TMP DP  RH WIND       PRES   REMARKS
BRIGHAM CITY     N/A     46  36  66 SW12      30.05R
HILL AFB       CLOUDY    47  33  58 S20G30    30.04R
LOGAN          CLOUDY    48  35  60 VRB5      30.01R
OGDEN          CLOUDY    48  34  58 S24       30.04R
SALT LAKE CITY PTSUNNY   50  33  52 S25G37    30.03R
TOOELE VALLEY  CLOUDY    50  36  57 S26G36    30.03R
WENDOVER       PTSUNNY   45  34  65 E3        30.00S
HEBER CITY     PTSUNNY   45  30  57 S9G16     30.09R
WEST JORDAN    PTSUNNY   50  42  72 S25       30.08R

$$

UTZ011>015-024>027-201800-

CENTRAL/NORTHEAST UTAH

CITY           SKY/WX    TMP DP  RH WIND       PRES   REMARKS
PROVO AIRPORT  PTSUNNY   47  35  63 SE9       30.13R
MOAB/CANYONLAN MOSUNNY   46  41  82 N6        30.17R
DELTA          MOSUNNY   45  34  65 S20G26    30.13R
PRICE          CLOUDY    36  36 100 SE3       30.18R FOG
ROOSEVELT      MOSUNNY   37  34  87 SE7       30.17S WCI  32
VERNAL         CLOUDY    34  33  96 CALM      30.16R

$$

UTZ013>016-019>022-027-201800-

SOUTHERN UTAH

CITY           SKY/WX    TMP DP  RH WIND       PRES   REMARKS
BRYCE CANYON   CLOUDY    34  29  82 CALM      30.23R
CEDAR CITY     PTSUNNY   44  38  79 S13       30.17R
MILFORD        CLOUDY    45  37  73 S17       30.15R
ST GEORGE      CLOUDY    49  45  86 S3        30.22R
HANKSVILLE     CLOUDY    32  32 100 CALM      30.22R VSB 1/4
BLANDING       PTSUNNY   41  36  81 SW3       30.31R

$$

REGIONAL REPORTS     COLORADO/ARIZONA

CITY           SKY/WX    TMP DP  RH WIND       PRES   REMARKS
CRAIG, CO      CLOUDY    29  25  85 NE3       30.17R
GRAND JUNCTION MOSUNNY   45  39  79 SE13      30.19R
RIFLE, CO      CLOUDY    45  34  65 VRB3      30.20R
MONTROSE, CO   SUNNY     43  34  70 E6        30.22F
CORTEZ, CO     SUNNY     42  34  73 CALM      30.22S
COLORADO CITY  CLOUDY    45  41  87 CALM      30.27R
PAGE, AZ       PTSUNNY   47  32  56 CALM      30.22R
GRAND CANYON   CLOUDY    38  35  89 SW9       30.29R WCI  31
KINGMAN, AZ    CLOUDY    51  37  58 CALM      30.24R
FLAGSTAFF, AZ  CLOUDY    37  32  82 NW8       30.29R WCI  31

$$

REGIONAL REPORTS    NEVADA/IDAHO/WYOMING

CITY           SKY/WX    TMP DP  RH WIND       PRES   REMARKS
LAS VEGAS, NV  PTSUNNY   59  44  57 SE10      30.15R
ELY, NY        CLOUDY    41  33  73 S24G31    30.07R
ELKO, NV       CLOUDY    44  34  67 S16G25    29.95R
POCATELLO, ID  CLOUDY    45  34  65 S29G38    29.91R
BURLEY, ID     CLOUDY    48  34  58 S17G25    29.87S
FORT BRIDGER,    N/A     40  27  59 SW6       30.06R
EVANSTON, WY   CLOUDY    33  26  75 SW15      30.04R WCI  23
ROCK SPRINGS,  SUNNY     36  27  69 S7        30.03F WCI  30
KEMMERER, WY     N/A     36  28  75 S8        30.03R WCI  29

$$




USA.gov is the U.S. government's official web portal to all federal, state and local government web resources and services.